When you browse on this site, cookies collect data to enhance your experience and personalize the content and advertising you see.
Visit our Privacy Policy to learn more. By continuing to use the site, you agree to this use of cookies and data.
  • In Germany
  • List of Countries
  • For 7 days
  • Water Temperature
  • Weather Map
  • Weather Widgets
  • user-avatar
    Login

    Hourly Weather Kornilova

    Today, 15 October, Tuesday

    Time Temperature Precipitation Wind Pressure Humidity
    00:00 +4°C° 0 mm 6 mps 733 mmHg 84%
    01:00 +4°C° 0 mm 6 mps 733 mmHg 83%
    02:00 +4°C° 0 mm 6 mps 733 mmHg 82%
    03:00 +5°C° 0 mm 5 mps 734 mmHg 82%
    04:00 +5°C° 0 mm 5 mps 734 mmHg 83%
    05:00 +5°C° 0 mm 5 mps 734 mmHg 83%
    06:00 +4°C° 0 mm 4 mps 735 mmHg 83%
    07:00 +4°C° 0 mm 4 mps 735 mmHg 82%
    08:00 +5°C° 0 mm 4 mps 735 mmHg 81%
    09:00 +5°C° 0 mm 4 mps 735 mmHg 79%
    10:00 +5°C° 0 mm 5 mps 735 mmHg 77%
    11:00 +5°C° 0.1 mm 4 mps 735 mmHg 75%
    12:00 +5°C° 0.1 mm 4 mps 735 mmHg 73%
    13:00 +5°C° 0.1 mm 4 mps 735 mmHg 71%
    14:00 +5°C° 0 mm 4 mps 735 mmHg 72%
    15:00 +5°C° 0 mm 3 mps 735 mmHg 74%
    16:00 +5°C° 0 mm 3 mps 735 mmHg 75%
    17:00 +4°C° 0 mm 3 mps 735 mmHg 79%
    18:00 +3°C° 0 mm 3 mps 735 mmHg 84%
    19:00 +3°C° 0 mm 3 mps 735 mmHg 88%
    20:00 +2°C° 0 mm 3 mps 735 mmHg 88%
    21:00 +2°C° 0 mm 3 mps 735 mmHg 88%
    22:00 +2°C° 0 mm 3 mps 735 mmHg 87%
    23:00 +1°C° 0 mm 3 mps 735 mmHg 88%

    Tomorrow, 16 October, Wednesday

    Time Temperature Precipitation Wind Pressure Humidity
    00:00 +1°C° 0 mm 3 mps 736 mmHg 88%
    01:00 0°C° 0 mm 3 mps 736 mmHg 89%
    02:00 0°C° 0 mm 3 mps 736 mmHg 89%
    03:00 0°C° 0 mm 3 mps 737 mmHg 89%
    04:00 -1°C° 0 mm 3 mps 737 mmHg 89%
    05:00 -1°C° 0 mm 4 mps 737 mmHg 91%
    06:00 -1°C° 0 mm 4 mps 738 mmHg 93%
    07:00 -1°C° 0 mm 4 mps 738 mmHg 96%
    08:00 -1°C° 0.1 mm 4 mps 738 mmHg 94%
    09:00 0°C° 0.1 mm 4 mps 739 mmHg 92%
    10:00 0°C° 0.1 mm 4 mps 739 mmHg 90%
    11:00 0°C° 0 mm 4 mps 740 mmHg 85%
    12:00 +1°C° 0 mm 4 mps 740 mmHg 80%
    13:00 +1°C° 0 mm 4 mps 740 mmHg 75%
    14:00 +1°C° 0 mm 4 mps 741 mmHg 76%
    15:00 +1°C° 0 mm 4 mps 741 mmHg 77%
    16:00 +1°C° 0 mm 4 mps 742 mmHg 77%
    17:00 0°C° 0 mm 4 mps 742 mmHg 77%
    18:00 0°C° 0 mm 4 mps 743 mmHg 77%
    19:00 -1°C° 0 mm 4 mps 743 mmHg 77%
    20:00 -1°C° 0 mm 4 mps 744 mmHg 78%
    21:00 -1°C° 0 mm 4 mps 744 mmHg 80%
    22:00 -2°C° 0 mm 4 mps 745 mmHg 81%
    23:00 -2°C° 0 mm 4 mps 745 mmHg 81%

    Day after tomorrow, 17 October, Thursday

    Time Temperature Precipitation Wind Pressure Humidity
    00:00 -2°C° 0 mm 4 mps 745 mmHg 81%
    01:00 -2°C° 0 mm 4 mps 746 mmHg 82%
    02:00 -2°C° 0 mm 4 mps 746 mmHg 82%
    03:00 -2°C° 0 mm 4 mps 746 mmHg 82%
    04:00 -2°C° 0 mm 4 mps 747 mmHg 82%
    05:00 -2°C° 0 mm 4 mps 747 mmHg 82%
    06:00 -1°C° 0 mm 3 mps 747 mmHg 82%
    07:00 -2°C° 0 mm 3 mps 748 mmHg 83%
    08:00 -1°C° 0 mm 3 mps 748 mmHg 80%
    09:00 -1°C° 0 mm 4 mps 748 mmHg 77%
    10:00 -1°C° 0 mm 4 mps 748 mmHg 75%
    11:00 -1°C° 0 mm 4 mps 748 mmHg 72%
    12:00 0°C° 0 mm 4 mps 748 mmHg 70%
    13:00 0°C° 0 mm 4 mps 748 mmHg 68%
    14:00 +1°C° 0 mm 3 mps 747 mmHg 69%
    15:00 0°C° 0 mm 3 mps 747 mmHg 70%
    16:00 +1°C° 0 mm 2 mps 747 mmHg 70%
    17:00 +1°C° 0 mm 2 mps 747 mmHg 76%
    18:00 -1°C° 0 mm 2 mps 746 mmHg 82%
    19:00 -1°C° 0 mm 2 mps 746 mmHg 87%
    20:00 -1°C° 0.2 mm 2 mps 745 mmHg 90%
    21:00 -1°C° 0.2 mm 2 mps 745 mmHg 93%
    22:00 -1°C° 0.2 mm 2 mps 744 mmHg 96%
    23:00 -1°C° 0.5 mm 2 mps 743 mmHg 97%

    18 October, Friday

    Time Temperature Precipitation Wind Pressure Humidity
    00:00 -1°C° 0.5 mm 2 mps 743 mmHg 97%
    01:00 -1°C° 0.5 mm 3 mps 742 mmHg 97%
    02:00 -1°C° 0.7 mm 3 mps 741 mmHg 97%
    03:00 -1°C° 0.7 mm 3 mps 740 mmHg 97%
    04:00 -1°C° 0.7 mm 3 mps 740 mmHg 97%
    05:00 -2°C° 0.7 mm 4 mps 739 mmHg 97%
    06:00 -2°C° 0.7 mm 4 mps 739 mmHg 97%
    07:00 -3°C° 0.7 mm 4 mps 739 mmHg 96%
    08:00 -2°C° 0.8 mm 5 mps 739 mmHg 95%
    09:00 -3°C° 0.8 mm 6 mps 740 mmHg 94%
    10:00 -3°C° 0.8 mm 6 mps 740 mmHg 94%
    11:00 -3°C° 0.2 mm 6 mps 741 mmHg 91%
    12:00 -3°C° 0.2 mm 6 mps 742 mmHg 89%
    13:00 -3°C° 0.2 mm 6 mps 744 mmHg 86%
    14:00 -4°C° 0 mm 6 mps 745 mmHg 84%
    15:00 -4°C° 0 mm 5 mps 746 mmHg 81%
    16:00 -4°C° 0 mm 5 mps 747 mmHg 79%
    17:00 -4°C° 0 mm 4 mps 748 mmHg 81%
    18:00 -5°C° 0 mm 4 mps 749 mmHg 83%
    19:00 -5°C° 0 mm 3 mps 750 mmHg 84%
    20:00 -6°C° 0 mm 3 mps 750 mmHg 86%
    21:00 -7°C° 0 mm 3 mps 751 mmHg 88%
    22:00 -6°C° 0 mm 2 mps 752 mmHg 90%
    23:00 -7°C° 0 mm 2 mps 752 mmHg 91%

    19 October, Saturday

    Time Temperature Precipitation Wind Pressure Humidity
    00:00 -7°C° 0 mm 2 mps 752 mmHg 92%
    01:00 -8°C° 0 mm 2 mps 753 mmHg 93%
    02:00 -8°C° 0 mm 2 mps 753 mmHg 93%
    03:00 -8°C° 0 mm 2 mps 754 mmHg 93%
    04:00 -8°C° 0 mm 2 mps 754 mmHg 93%
    05:00 -7°C° 0 mm 1 mps 754 mmHg 93%
    06:00 -7°C° 0 mm 1 mps 755 mmHg 93%
    07:00 -8°C° 0 mm 1 mps 755 mmHg 93%
    08:00 -6°C° 0 mm 1 mps 755 mmHg 87%
    09:00 -3°C° 0 mm 1 mps 756 mmHg 81%
    10:00 -2°C° 0 mm 1 mps 756 mmHg 75%
    11:00 -3°C° 0 mm 2 mps 756 mmHg 73%
    12:00 -2°C° 0 mm 2 mps 756 mmHg 70%
    13:00 -2°C° 0 mm 2 mps 756 mmHg 68%
    14:00 -2°C° 0 mm 2 mps 756 mmHg 72%
    15:00 -2°C° 0 mm 2 mps 756 mmHg 75%
    16:00 -3°C° 0 mm 2 mps 755 mmHg 79%
    17:00 -4°C° 0 mm 2 mps 756 mmHg 82%
    18:00 -5°C° 0 mm 2 mps 756 mmHg 86%
    19:00 -6°C° 0 mm 2 mps 756 mmHg 89%
    20:00 -6°C° 0 mm 2 mps 756 mmHg 88%
    21:00 -6°C° 0 mm 2 mps 756 mmHg 88%
    22:00 -6°C° 0 mm 2 mps 756 mmHg 87%
    23:00 -6°C° 0 mm 2 mps 755 mmHg 86%

    20 October, Sunday

    Time Temperature Precipitation Wind Pressure Humidity
    00:00 -7°C° 0 mm 2 mps 755 mmHg 85%
    01:00 -8°C° 0 mm 3 mps 755 mmHg 84%
    02:00 -7°C° 0 mm 2 mps 755 mmHg 84%
    03:00 -7°C° 0 mm 2 mps 755 mmHg 84%
    04:00 -7°C° 0 mm 2 mps 755 mmHg 84%
    05:00 -7°C° 0 mm 3 mps 755 mmHg 83%
    06:00 -7°C° 0 mm 3 mps 755 mmHg 82%
    07:00 -7°C° 0 mm 3 mps 755 mmHg 82%
    08:00 -5°C° 0 mm 3 mps 755 mmHg 79%
    09:00 -4°C° 0 mm 3 mps 755 mmHg 77%
    10:00 -3°C° 0 mm 4 mps 755 mmHg 75%
    11:00 -2°C° 0 mm 4 mps 754 mmHg 75%
    12:00 -1°C° 0 mm 4 mps 754 mmHg 76%
    13:00 0°C° 0 mm 4 mps 754 mmHg 77%
    14:00 0°C° 0 mm 4 mps 754 mmHg 79%
    15:00 0°C° 0 mm 3 mps 754 mmHg 82%
    16:00 0°C° 0 mm 3 mps 754 mmHg 84%
    17:00 -1°C° 0 mm 3 mps 754 mmHg 86%
    18:00 -2°C° 0 mm 3 mps 754 mmHg 87%
    19:00 -4°C° 0 mm 3 mps 754 mmHg 89%
    20:00 -4°C° 0 mm 3 mps 754 mmHg 88%
    21:00 -4°C° 0 mm 3 mps 753 mmHg 88%
    22:00 -4°C° 0 mm 3 mps 753 mmHg 88%
    23:00 -4°C° 0 mm 4 mps 753 mmHg 89%
    Show more